EW4071 Weather Reports


Display with metric or nautical units.
time (UTC)temp
F
wind
direction
speed
MPH
gust
MPH
rain 1hr
in
rain 24hr
in
rain mn
in
humidity
%
barometer
mb
20260508130001 59 209 6.0 9.0 0.00 0.00 0.00 77 1009.9
20260508124600 58 207 0.0 0.0 0.00 0.00 0.00 80 1009.9
20260508123111 56 149 0.0 0.0 0.00 0.00 0.00 82 1009.8
20260508121605 55 159 0.0 0.0 0.00 0.00 0.00 84 1009.6
20260508120057 54 143 0.0 0.0 0.00 0.00 0.00 84 1009.7
20260508114557 53 151 0.0 0.0 0.00 0.00 0.00 83 1009.7
20260508113108 53 145 0.0 0.0 0.00 0.00 0.00 82 1009.6
20260508111602 54 159 0.0 4.0 0.00 0.00 0.00 79 1009.3
20260508110056 57 159 0.0 8.0 0.00 0.00 0.00 74 1009.4
20260508104550 56 181 4.0 7.0 0.00 0.00 0.00 76 1009.4
20260508103057 55 208 0.0 0.0 0.00 0.00 0.00 75 1009.4
20260508101548 55 225 0.0 0.0 0.00 0.00 0.00 74 1009.3
20260508100046 55 209 0.0 0.0 0.00 0.00 0.00 72 1009.3
20260508094543 56 217 0.0 0.0 0.00 0.00 0.00 70 1009.4
20260508093041 57 202 0.0 1.0 0.00 0.00 0.00 68 1009.3
20260508091547 57 203 2.0 8.0 0.00 0.00 0.00 67 1009.1
20260508090049 58 218 5.0 11.0 0.00 0.00 0.00 65 1009.0
20260508084533 58 192 4.0 9.0 0.00 0.00 0.00 65 1008.9
20260508083038 58 192 4.0 12.0 0.00 0.00 0.00 64 1009.1
20260508081530 58 204 6.0 9.0 0.00 0.00 0.00 64 1009.2
20260508080028 59 217 0.0 0.0 0.00 0.00 0.00 63 1009.4
20260508074536 59 192 3.0 11.0 0.00 0.00 0.00 63 1009.4
20260508073029 59 202 5.0 11.0 0.00 0.00 0.00 63 1009.7
20260508071522 58 154 4.0 12.0 0.00 0.00 0.00 64 1010.0
20260508070020 58 157 0.0 0.0 0.00 0.00 0.00 63 1010.0
20260508064517 59 148 0.0 0.0 0.00 0.00 0.00 62 1010.1
20260508063015 59 144 2.0 7.0 0.00 0.00 0.00 60 1010.1
20260508061516 60 163 4.0 8.0 0.00 0.00 0.00 60 1010.1
20260508060009 60 161 1.0 10.0 0.00 0.00 0.00 59 1010.1
20260508054507 60 162 0.0 6.0 0.00 0.00 0.00 58 1010.2
20260508053004 61 155 5.0 9.0 0.00 0.00 0.00 56 1010.4
20260508051502 61 149 5.0 9.0 0.00 0.00 0.00 56 1010.5
20260508050059 61 152 5.0 10.0 0.00 0.00 0.00 55 1010.5
20260508044559 62 173 5.0 9.0 0.00 0.00 0.00 54 1010.6
20260508043104 62 164 5.0 12.0 0.00 0.00 0.00 54 1010.7
20260508041616 63 151 6.0 11.0 0.00 0.00 0.00 52 1010.8
20260508040110 63 164 8.0 14.0 0.00 0.00 0.00 51 1010.8
20260508034558 64 158 7.0 17.0 0.00 0.00 0.00 51 1010.9
20260508033054 63 186 6.0 10.0 0.00 0.00 0.00 51 1010.8
20260508031557 63 150 4.0 8.0 0.00 0.00 0.00 51 1010.7
20260508030052 63 158 4.0 9.0 0.00 0.00 0.00 50 1010.8
20260508024604 64 133 2.0 8.0 0.00 0.00 0.00 50 1010.7
20260508023052 64 141 4.0 8.0 0.00 0.00 0.00 49 1010.6
20260508021550 65 154 5.0 10.0 0.00 0.00 0.00 49 1010.5
20260508020052 65 137 0.0 6.0 0.00 0.00 0.00 48 1010.5
20260508014549 66 143 0.0 0.0 0.00 0.00 0.00 46 1010.4
20260508013051 68 145 0.0 8.0 0.00 0.00 0.00 42 1010.1
20260508011555 69 155 0.0 7.0 0.00 0.00 0.00 40 1010.0
20260508010047 71 174 5.0 12.0 0.00 0.00 0.00 36 1009.9
20260508004549 71 192 6.0 12.0 0.00 0.00 0.00 36 1009.8
20260508003042 72 204 7.0 13.0 0.00 0.00 0.00 35 1009.7
20260508001542 72 212 3.0 13.0 0.00 0.00 0.00 36 1009.8
20260508000039 72 183 5.0 15.0 0.00 0.00 0.00 35 1009.8
20260507234539 73 202 8.0 15.0 0.00 0.00 0.00 34 1009.8
20260507233054 74 211 8.0 13.0 0.00 0.00 0.00 32 1009.8
20260507231538 74 170 8.0 12.0 0.00 0.00 0.00 33 1009.9
20260507230035 74 214 6.0 12.0 0.00 0.00 0.00 32 1010.1
20260507224533 74 223 5.0 12.0 0.00 0.00 0.00 31 1010.3
20260507223032 75 189 5.0 13.0 0.00 0.00 0.00 34 1010.4
20260507221535 75 204 5.0 10.0 0.00 0.00 0.00 33 1010.6
20260507220030 74 180 7.0 14.0 0.00 0.00 0.00 31 1010.7
20260507214526 74 232 2.0 14.0 0.00 0.00 0.00 31 1010.9
20260507213028 74 218 7.0 11.0 0.00 0.00 0.00 30 1011.1
20260507211523 73 251 7.0 13.0 0.00 0.00 0.00 32 1011.3
20260507210018 74 222 8.0 15.0 0.00 0.00 0.00 30 1011.6
20260507204520 73 205 8.0 11.0 0.00 0.00 0.00 33 1012.0
20260507203013 72 225 5.0 12.0 0.00 0.00 0.00 36 1012.3
20260507201514 72 274 9.0 15.0 0.00 0.00 0.00 34 1012.7
20260507200011 72 245 4.0 13.0 0.00 0.00 0.00 34 1012.9
20260507194505 71 251 0.0 9.0 0.00 0.00 0.00 35 1013.2
20260507193201 70 202 7.0 14.0 0.00 0.00 0.00 37 1013.5
20260507191556 70 254 2.0 14.0 0.00 0.00 0.00 40 1013.8
20260507190056 69 285 4.0 15.0 0.00 0.00 0.00 41 1014.0
20260507184552 69 261 3.0 16.0 0.00 0.00 0.00 41 1014.3
20260507183048 68 230 6.0 14.0 0.00 0.00 0.00 44 1014.4
20260507181552 67 258 3.0 11.0 0.00 0.00 0.00 47 1014.7
20260507180041 66 226 7.0 14.0 0.00 0.00 0.00 44 1015.1
20260507174544 66 220 6.0 16.0 0.00 0.00 0.00 46 1015.3
20260507173052 65 200 7.0 13.0 0.00 0.00 0.00 47 1015.6
20260507171541 65 245 2.0 14.0 0.00 0.00 0.00 50 1016.0
20260507170028 64 264 4.0 20.0 0.00 0.00 0.00 50 1016.1
20260507164530 63 244 8.0 15.0 0.00 0.00 0.00 51 1016.3
20260507163022 62 231 8.0 15.0 0.00 0.00 0.00 52 1016.5
20260507161527 63 249 7.0 15.0 0.00 0.00 0.00 51 1016.7
20260507160017 61 206 6.0 12.0 0.00 0.00 0.00 56 1016.9
20260507154513 60 232 4.0 14.0 0.00 0.00 0.00 56 1017.0
20260507153012 60 238 5.0 11.0 0.00 0.00 0.00 56 1017.2
20260507151510 60 251 1.0 9.0 0.00 0.00 0.00 62 1017.5
20260507150010 60 243 2.0 8.0 0.00 0.00 0.00 58 1017.6
20260507144506 58 254 1.0 7.0 0.00 0.00 0.00 64 1017.7
20260507143005 58 270 0.0 7.0 0.00 0.00 0.00 65 1017.7
20260507141635 57 229 3.0 6.0 0.00 0.00 0.00 66 1017.8
20260507140055 55 242 1.0 5.0 0.00 0.00 0.00 72 1018.1
20260507134559 54 255 0.0 0.0 0.00 0.00 0.00 75 1018.1
20260507133049 53 262 0.0 0.0 0.00 0.00 0.00 77 1018.2
20260507131545 52 249 0.0 0.0 0.00 0.00 0.00 75 1018.0